Flag for Switzerland Weather past 2 weeks in Solothurn, Solothurn, Switzerland

Now
47 °F

Cool.


Feels Like: 40 °F
Forecast: 34 / 48 °F
Wind: 17 mph from West

Location: Grenchen

Current Time: Mar 2, 2015 at 5:28:31 AM

Latest Report: Mar 2, 2015 at 4:00 AM


Visibility: N/A

Pressure: 29.83 "Hg

Humidity: 98%

Dew point: 46 °F

Location of SolothurnLocation

Historic Weather in Solothurn — Graph

°F

Solothurn temperature yesterday

Maximum temperature yesterday: 47 °F (at 10:00 PM)
Minimum temperature yesterday: 30 °F (at 12:00 AM)
Average temperature yesterday: 39 °F

Past Weeks' High & Low Weather Summary

 TemperatureHumidityPressure
High49 °F (Feb 20, 4:00 PM)100% (Feb 15, 7:00 AM)30.75 "Hg (Feb 15, 7:00 AM)
Low25 °F (Feb 20, 6:00 AM)43% (Feb 26, 4:00 PM)29.63 "Hg (Feb 21, 9:00 AM)
Average35 °F90%30.10 "Hg
* Reported Feb 15 3:00 AM — Mar 2 3:00 AM, Solothurn, Weather by CustomWeather, © 2015

Note: Actual official high and low records may vary slightly from our data, if they occured in-between our weather recording intervals... More about our weather records

Advertising

Solothurn weather history for previous 24 hours

 ConditionsComfort  
Time TempWeatherWind HumidityBarometerVisibility
3:00 AM
Mon, Mar 2
47 °FCool.18 mph97%29.84 "HgN/A
2:00 AM47 °FCool.21 mph96%29.85 "HgN/A
1:00 AM47 °FCool.17 mph97%29.87 "HgN/A
12:00 AM47 °FCool.16 mph96%29.88 "HgN/A
11:00 PM
Sun, Mar 1
47 °FCool.10 mph95%29.89 "HgN/A
10:00 PM47 °FCool.10 mph93%29.90 "HgN/A
9:00 PM46 °FCool.17 mph96%29.90 "HgN/A
8:00 PM46 °FCool.15 mph95%29.92 "HgN/A
7:00 PM46 °FCool.14 mph96%29.93 "HgN/A
6:00 PM45 °FQuite cool.14 mph99%29.93 "HgN/A
5:00 PM45 °FCool.16 mph96%29.93 "HgN/A
4:00 PM44 °FQuite cool.15 mph98%29.93 "HgN/A
3:00 PM44 °FQuite cool.16 mph98%29.93 "HgN/A
2:00 PM43 °FQuite cool.14 mph97%29.96 "HgN/A
1:00 PM41 °FQuite cool.10 mph98%29.99 "HgN/A
12:00 PM41 °FQuite cool.13 mph98%30.01 "HgN/A
11:00 AM40 °FQuite cool.15 mph97%30.01 "HgN/A
10:00 AM39 °FChilly.15 mph95%30.02 "HgN/A
9:00 AM38 °FChilly.15 mph97%30.03 "HgN/A
8:00 AM36 °FChilly.16 mph97%30.03 "HgN/A
7:00 AM34 °FChilly.8 mph99%30.03 "HgN/A
6:00 AM33 °FChilly.7 mph98%30.05 "HgN/A
5:00 AM33 °FChilly.6 mph95%30.06 "HgN/A
Weather by CustomWeather, © 2015

See weather overviewHow to use our weather pages